Tracking 27111 objects as of 29-Mar-2023
HD Live streaming from Space Station
objects crossing your sky now

OBJECT K

Track OBJECT K now!
10-day predictions


NORAD ID: 55257
Int'l Code: 2023-007K
Perigee: 484.4 km
Apogee: 496.2 km
Inclination: 97.4 °
Period: 94.3 minutes
Semi major axis: 6861 km
RCS: Unknown
Launch date: January 15, 2023
Source: People's Republic of China (PRC)
Launch site: Taiyaun Space Center, China (TSC)
Your satellite tracking list
Your tracking list is empty




NASA's NSSDC Master Catalog

Two Line Element Set (TLE):
1 55257U 23007K   23087.70851258  .00018785  00000-0  69848-3 0  9999
2 55257  97.3637 161.1879 0008582  34.4622  82.3697 15.27534711 11067
Source of the keplerian elements: AFSPC